CAPE
0 0 0 0 0 0 0 0 0 0 0 0 0 0 0 0 0 0 0 0 0 0 0 0 0 0 0 0 0 0 0 0 0 0 0 0 0 0 0 0 0 0 0
0 0 0 0 0 0 0 0 0 0 0 0 0 0 0 0 0 0 0 0 0 0 0 0 0 0 0 0 0 0 0 0 0 0 0 0 0 0 0 0 0 0 0
0 0 0 0 0 0 0 0 0 0 0 0 0 0 0 0 0 0 0 0 0 0 0 0 0 0 0 0 0 0 0 0 0 0 0 0 0 0 0 0 0 0 0
0 0 0 0 0 0 0 0 0 0 0 0 0 0 0 0 0 0 0 0 0 0 0 0 0 0 0 0 0 0 0 0 0 0 0 0 0 0 0 0 0 0 0
0 0 0 0 0 0 0 0 0 0 0 0 0 0 0 0 0 0 0 0 0 0 0 0 0 0 0 0 0 0 0 0 0 0 0 0 0 0 0 0 0 0 0
0 0 0 0 0 0 0 0 0 0 0 0 0 0 0 0 0 0 0 0 0 0 0 0 0 0 0 0 0 0 0 0 0 0 0 0 0 0 0 0 0 0 0
0 0 0 0 0 0 0 0 0 0 0 0 0 0 0 0 0 0 0 0 0 0 0 0 0 0 0 0 0 0 0 0 0 0 0 0 0 0 0 0 0 0 0
0 0 0 0 0 0 0 0 0 0 0 0 0 0 0 0 0 0 0 0 0 0 0 0 0 0 0 0 0 0 0 0 0 0 0 0 0 0 0 0 0 0 0
0 0 0 0 0 0 0 0 0 0 0 0 0 0 0 0 0 0 0 0 0 0 0 0 0 0 0 0 0 0 0 0 0 0 0 0 0 0 2 0 0 0 0
0 0 0 0 0 0 0 0 0 0 0 0 0 0 0 0 0 0 0 0 0 0 0 0 0 0 0 0 0 0 0 0 0 0 0 0 0 0 0 0 0 0 0
0 0 0 0 0 0 0 0 0 0 0 0 0 0 0 0 0 0 0 0 0 2 0 0 0 0 0 0 0 0 0 0 0 0 0 0 0 0 0 0 0 0 0
0 0 0 0 0 0 0 0 0 0 0 0 0 0 0 0 0 0 0 2 3 0 0 0 0 0 0 0 0 0 1 3 0 0 0 0 0 0 0 0 0 0 0
0 0 0 0 0 0 0 0 0 0 0 0 0 0 0 0 0 2 3 3 1 1 0 0 0 0 0 0 0 2 0 0 0 0 0 0 0 0 0 0 0 0 0
0 0 0 0 0 0 0 0 0 0 0 0 0 0 0 0 0 3 1 0 3 1 0 0 0 0 0 0 0 0 0 0 0 0 0 0 0 0 0 0 0 0 0
0 0 0 0 0 0 0 0 0 0 0 0 0 0 0 0 0 0 0 0 0 0 0 0 0 0 0 0 0 0 0 0 0 0 0 0 0 0 0 0 0 0 0
0 0 1 1 1 0 0 0 1 0 0 0 0 0 0 0 0 0 0 0 0 0 0 0 0 0 0 0 0 0 0 0 0 0 0 0 0 0 0 0 0 0 0
0 0 0 0 0 0 0 0 0 1 0 1 0 0 0 0 0 0 0 0 1 0 0 0 0 0 0 0 0 0 0 0 0 0 0 0 0 0 0 0 0 0 0
0 0 0 0 0 0 0 0 0 0 0 2 0 0 0 0 0 0 0 0 0 0 0 0 0 0 0 0 0 0 0 0 0 0 0 0 0 0 0 0 0 0 0
0 0 0 0 0 0 0 0 0 0 0 0 0 0 0 0 0 0 0 0 0 0 0 0 0 0 0 0 0 0 0 0 0 0 0 0 0 0 0 0 0 0 0
0 0 0 0 0 0 0 0 0 0 0 0 0 0 0 0 0 0 0 0 0 0 0 0 0 0 0 0 0 0 0 0 0 0 0 0 0 0 0 0 0 0 0
0 0 0 0 0 0 0 0 0 0 0 0 0 0 0 0 0 0 0 0 0 0 0 0 0 0 0 0 0 0 0 0 0 0 0 0 0 0 0 0 0 0 0
0 0 0 0 0 0 0 0 0 0 0 0 0 0 0 0 0 0 0 0 0 0 0 0 0 0 0 0 0 0 0 0 0 0 0 0 0 0 0 0 0 0 0
0 0 0 0 0 0 0 0 0 0 0 0 0 0 0 0 0 0 0 0 0 0 0 0 0 0 0 0 0 0 0 0 0 0 0 0 0 0 0 0 0 0 0
0 0 0 0 0 0 0 0 0 0 0 0 0 0 0 0 0 0 0 0 0 0 0 0 0 0 0 0 0 0 0 0 0 0 0 0 0 0 0 0 0 0 0
0 0 0 0 0 0 0 0 0 0 0 0 0 0 0 0 0 0 0 0 0 0 0 0 0 0 0 0 0 0 0 0 0 0 0 0 0 0 0 0 0 0 0
0 0 0 0 0 0 0 0 0 0 0 0 0 0 0 0 0 0 0 0 0 0 0 0 0 0 0 0 0 0 0 0 0 0 0 0 0 0 0 0 0 0 0
CIN
-0 -0 -0 -0 -0 -0 -0 -0 -0 -0 -0 -0 -0 -0 -0 -0 -0 -0 -0 -0 -0 -0 -0 -0 -0 -0 -0 -0 -0 -0 -0 -0 -0 -0 -0 -0 -0 -0 -0 -0 -0 -0 -0
-0 -0 -0 -0 -0 -0 -0 -0 -0 -0 -0 -0 -0 -0 -0 -0 -0 -0 -0 -0 -0 -0 -0 -0 -0 -0 -0 -0 -0 -0 -0 -0 -0 -0 -0 -0 -0 -0 -0 -0 -0 -0 -0
-0 -0 -0 -0 -0 -0 -0 -0 -0 -0 -0 -0 -0 -0 -0 -0 -0 -0 -0 -0 -0 -0 -0 -0 -0 -0 -0 -0 -0 -0 -0 -0 -0 -0 -0 -0 -0 -0 -0 -0 -0 -0 -0
-0 -0 -0 -0 -0 -0 -0 -0 -0 -0 -0 -0 -0 -0 -0 -0 -0 -0 -0 -0 -0 -0 -0 -0 -0 -0 -0 -0 -0 -0 -0 -0 -0 -0 -0 -0 -0 -0 -0 -0 -0 -0 -0
-0 -0 -0 -0 -0 -0 -0 -0 -0 -0 -0 -0 -0 -0 -0 -0 -0 -0 -0 -0 -0 -0 -0 -0 -0 -0 -0 -0 -0 -0 -0 -0 -0 -0 -0 -0 -0 -0 -0 -0 -0 -0 -0
-0 -0 -0 -0 -0 -0 -0 -0 -0 -0 -0 -0 -0 -0 -0 -0 -0 -0 -0 -0 -0 -0 -0 -0 -0 -0 -0 -0 -0 -0 -0 -0 -0 -0 -0 -0 -0 -0 -0 -0 -0 -0 -0
-0 -0 -0 -0 -0 -0 -0 -0 -0 -0 -0 -0 -0 -0 -0 -0 -0 -0 -0 -0 -0 -0 -0 -0 -0 -0 -0 -0 -0 -0 -0 -0 -0 -0 -0 -0 -0 -0 -0 -0 -0 -0 -0
-0 -0 -0 -0 -0 -0 -0 -0 -0 -0 -0 -0 -0 -0 -0 -0 -0 -0 -0 -0 -0 -0 -0 -0 -0 -0 -0 -0 -0 -0 -0 -0 -0 -0 -0 -0 -0 -0 -0 -0 -0 -0 -0
-0 -0 -0 -0 -0 -0 -0 -0 -0 -0 -0 -0 -0 -0 -0 -0 -0 -0 -0 -0 -0 -0 -0 -0 -0 -0 -0 -0 -0 -0 -0 -0 -0 -0 -0 -0 -0 -1 -1 -0 -0 -0 -0
-0 -0 -0 -0 -0 -0 -0 -0 -0 -0 -0 -0 -0 -0 -0 -0 -0 -0 -0 -0 -0 -0 -0 -0 -0 -0 -0 -0 -0 -0 -0 -0 -0 -0 -0 -0 -0 -0 -0 -0 -0 -0 -0
-0 -0 -0 -0 -0 -0 -0 -0 -0 -0 -0 -0 -0 -0 -0 -0 -0 -0 -0 -0 -0 -0 -0 -0 -0 -0 -0 -0 -0 -0 -0 -0 -0 -0 -0 -0 -0 -0 -0 -0 -0 -0 -0
-0 -0 -0 -0 -0 -0 -0 -0 -0 -0 -0 -0 -0 -0 -0 -0 -0 -0 -0 -0 -0 -0 -0 -0 -0 -0 -0 -0 -0 -0 -0 -0 -1 -0 -0 -0 -0 -0 -0 -0 -0 -0 -0
-0 -0 -0 -0 -0 -0 -0 -0 -0 -0 -0 -0 -0 -0 -0 -0 -0 -0 -0 -0 -0 -0 -0 -0 -0 -0 -0 -0 -0 -0 -0 -0 -0 -0 -0 -0 -0 -0 -0 -0 -0 -0 -0
-0 -0 -0 -0 -0 -0 -0 -0 -0 -0 -0 -0 -0 -0 -0 -0 -0 -0 -0 -0 -0 -0 -0 -0 -0 -0 -0 -0 -0 -0 -0 -0 -0 -0 -0 -0 -0 -0 -0 -0 -0 -0 -0
-0 -0 -0 -0 -0 -0 -0 -0 -0 -0 -0 -0 -0 -0 -0 -0 -0 -0 -0 -0 -0 -0 -0 -0 -0 -0 -0 -0 -0 -0 -0 -0 -0 -0 -0 -0 -0 -0 -0 -0 -0 -0 -0
-0 -0 -0 -0 -0 -0 -0 -0 -0 -0 -0 -0 -0 -0 -0 -0 -0 -0 -0 -0 -0 -0 -0 -0 -0 -0 -0 -0 -0 -0 -0 -0 -0 -0 -0 -0 -0 -0 -0 -0 -0 -0 -0
-0 -0 -0 -0 -0 -0 -0 -0 -0 -0 -0 -0 -0 -0 -0 -0 -0 -0 -0 -0 -0 -0 -0 -0 -0 -0 -0 -0 -0 -0 -0 -0 -0 -0 -0 -0 -0 -0 -0 -0 -0 -0 -0
-0 -0 -0 -0 -0 -0 -0 -0 -0 -0 -0 -0 -0 -0 -0 -0 -0 -0 -0 -0 -0 -0 -0 -0 -0 -0 -0 -0 -0 -0 -0 -0 -0 -0 -0 -0 -0 -0 -0 -0 -0 -0 -0
-0 -0 -0 -0 -0 -0 -0 -0 -0 -0 -0 -0 -0 -0 -0 -0 -0 -0 -0 -0 -0 -0 -0 -0 -0 -0 -0 -0 -0 -0 -0 -0 -0 -0 -0 -0 -0 -0 -0 -0 -0 -0 -0
-0 -0 -0 -0 -0 -0 -0 -0 -0 -0 -0 -0 -0 -0 -0 -0 -0 -0 -0 -0 -0 -0 -0 -0 -0 -0 -0 -0 -0 -0 -0 -0 -0 -0 -0 -0 -0 -0 -0 -0 -0 -0 -0
-0 -0 -0 -0 -0 -0 -0 -0 -0 -0 -0 -0 -0 -0 -0 -0 -0 -0 -0 -0 -0 -0 -0 -0 -0 -0 -0 -0 -0 -0 -0 -0 -0 -0 -0 -0 -0 -0 -0 -0 -0 -0 -0
-0 -0 -0 -0 -0 -0 -0 -0 -0 -0 -0 -0 -0 -0 -0 -0 -0 -0 -0 -0 -0 -0 -0 -0 -0 -0 -0 -0 -0 -0 -0 -0 -0 -0 -0 -0 -0 -0 -0 -0 -0 -0 -0
-0 -0 -0 -0 -0 -0 -0 -0 -0 -0 -0 -0 -0 -0 -0 -0 -0 -0 -0 -0 -0 -0 -0 -0 -0 -0 -0 -0 -0 -0 -0 -0 -0 -0 -0 -0 -0 -0 -0 -0 -0 -0 -0
-0 -0 -0 -0 -0 -0 -0 -0 -0 -0 -0 -0 -0 -0 -0 -0 -0 -0 -0 -0 -0 -0 -0 -0 -0 -0 -0 -0 -0 -0 -0 -0 -0 -0 -0 -0 -0 -0 -0 -0 -0 -0 -0
-0 -0 -0 -0 -0 -0 -0 -0 -0 -0 -0 -0 -0 -0 -0 -0 -0 -0 -0 -0 -0 -0 -0 -0 -0 -0 -0 -0 -0 -0 -0 -0 -0 -0 -0 -0 -0 -0 -0 -0 -0 -0 -0
-0 -0 -0 -0 -0 -0 -0 -0 -0 -0 -0 -0 -0 -0 -0 -0 -0 -0 -0 -0 -0 -0 -0 -0 -0 -0 -0 -0 -0 -0 -0 -0 -0 -0 -0 -0 -0 -0 -0 -0 -0 -0 -0
Wind_Speed
13 14 15 15 15 15 15 16 16 16 16 16 15 16 16 15 13 12 11 10 10 10 10 11 13 14 17 19 20 21 22 23 28 28 27 28 29 30 30 31 32 33 33
13 14 15 15 15 16 16 16 16 16 16 17 17 17 17 16 15 14 13 12 12 11 11 12 14 16 19 19 20 22 22 23 26 30 30 30 30 30 31 33 34 33 34
13 14 14 15 16 17 16 16 16 17 18 18 18 19 18 17 16 15 14 13 13 12 13 15 16 17 19 20 21 22 23 23 25 29 31 31 32 31 35 34 35 36 35
14 15 16 16 17 17 17 17 17 18 19 19 19 20 19 18 17 16 15 15 14 14 16 17 18 17 19 19 20 22 23 26 27 29 32 34 34 34 36 40 41 39 42
15 16 17 16 17 17 17 17 18 18 19 20 20 20 20 19 18 17 17 16 16 17 18 20 19 19 19 19 21 22 24 27 28 31 33 35 37 37 39 39 44 45 43
17 17 16 16 16 17 18 18 19 19 20 21 22 22 21 20 20 19 18 17 17 17 20 22 21 21 20 21 22 23 23 27 29 32 35 37 39 38 39 41 43 46 50
19 18 18 17 17 18 18 19 20 21 21 23 23 23 23 22 21 19 19 20 19 19 25 24 23 22 22 23 24 25 25 25 28 31 36 37 39 39 39 42 42 43 43
20 20 19 19 19 19 19 20 21 21 22 23 24 24 23 22 21 21 20 21 20 24 26 24 24 25 24 25 27 29 30 30 30 32 35 38 37 37 37 39 41 41 39
20 20 20 19 20 20 21 21 21 21 22 23 23 23 24 23 22 21 19 20 24 28 28 26 25 27 27 26 29 32 34 34 32 33 34 34 35 35 36 36 37 42 48
21 20 19 19 20 21 21 21 20 20 21 21 22 23 22 22 20 20 20 23 31 31 29 26 26 28 28 29 30 33 37 38 37 36 34 34 34 35 33 33 35 42 43
19 18 18 18 19 19 18 18 18 18 18 20 21 21 21 20 20 20 23 27 28 28 27 27 28 28 29 29 30 33 36 37 37 36 37 37 36 35 34 32 32 34 40
16 15 15 15 15 15 15 15 15 16 17 20 21 22 20 20 20 21 24 24 23 25 28 29 30 29 29 30 32 33 33 34 36 38 39 39 38 37 36 34 34 34 35
12 12 11 11 12 12 12 13 13 14 16 18 20 21 21 19 21 22 22 21 23 29 30 29 29 30 29 29 29 30 32 33 36 38 39 39 37 37 37 37 36 36 37
9 9 8 8 9 9 9 9 10 12 14 15 17 20 21 19 20 22 23 25 27 30 30 28 27 27 27 28 29 30 31 33 35 37 37 36 36 37 39 38 42 42 43
9 9 9 8 8 8 9 10 12 12 13 15 17 18 20 24 25 24 24 26 27 26 25 27 28 29 31 32 32 32 32 33 34 34 35 39 40 41 42 40 41 42 43
9 8 8 8 8 8 9 11 14 14 14 17 17 20 21 22 22 23 23 23 23 22 26 28 29 30 31 31 31 31 31 32 33 35 37 39 41 42 43 43 41 41 43
8 8 8 8 9 9 10 12 13 16 14 18 19 19 19 20 21 20 20 21 21 21 26 27 28 28 28 28 29 30 34 32 33 35 38 39 40 40 42 42 41 41 40
9 10 11 11 12 13 13 14 15 16 17 19 18 17 18 17 18 20 19 20 24 25 26 26 27 27 28 29 30 32 32 33 35 36 37 37 38 39 40 40 39 37 36
12 12 13 13 14 14 14 15 16 17 17 17 19 19 19 17 19 22 23 25 26 26 26 27 27 28 28 28 29 31 32 33 33 34 35 36 37 37 37 35 34 32 31
14 15 15 15 15 16 16 17 18 18 18 19 20 21 21 22 24 25 26 26 26 27 27 27 26 26 27 27 29 30 32 32 32 33 34 34 34 33 33 31 30 29 27
16 17 17 18 18 19 19 20 20 20 20 21 22 23 23 25 27 27 27 27 27 27 26 26 26 26 27 27 29 29 30 31 31 31 31 31 31 30 28 26 25 24 23
18 19 19 19 19 19 20 21 21 21 22 22 23 25 24 26 27 28 28 28 26 26 25 25 26 26 26 27 28 28 29 29 29 28 29 29 27 25 25 24 22 21 18
19 19 20 20 21 21 22 23 24 24 25 25 26 27 28 29 29 29 29 28 27 26 25 25 26 27 25 25 24 25 26 26 26 26 26 26 24 23 22 20 18 16 15
20 21 21 22 24 25 26 27 27 28 29 31 31 32 32 32 31 31 29 28 27 27 26 26 25 26 26 25 24 23 23 24 23 23 22 22 21 20 18 16 14 13 19
22 23 25 26 28 29 30 31 32 32 33 33 34 34 33 32 32 32 31 30 30 29 28 27 26 26 26 25 25 24 23 22 21 20 19 19 18 17 16 15 13 16 28
25 26 27 28 31 32 33 34 35 36 36 36 35 35 35 35 34 33 32 31 30 29 29 28 27 26 26 25 24 23 22 21 20 18 17 16 15 14 14 14 14 23 29
Wind_Direction
254 251 252 252 250 250 248 247 239 237 230 225 223 222 222 223 229 239 251 260 272 285 296 304 313 321 323 326 329 331 331 332 327 331 334 336 335 335 337 338 340 339 339
261 256 255 255 251 251 251 249 240 233 231 229 229 226 226 227 233 239 249 261 268 277 287 300 309 318 317 321 324 326 328 330 328 327 331 333 333 335 335 335 336 337 336
266 255 254 252 248 247 250 247 243 240 236 236 233 230 230 232 237 246 253 260 270 278 286 298 307 309 312 316 319 322 325 327 327 326 327 331 332 334 333 334 334 334 335
267 262 261 257 253 253 253 247 242 238 234 232 233 232 233 235 240 247 255 263 272 280 292 301 304 304 308 310 315 318 322 322 323 323 324 325 328 330 330 330 331 332 331
266 260 260 259 256 255 253 250 247 243 239 235 234 236 238 239 243 248 257 264 272 285 295 302 300 302 305 308 312 315 317 319 320 320 321 323 324 327 328 330 328 329 331
264 258 260 256 252 251 253 251 248 243 239 237 235 233 234 241 245 251 258 263 275 282 298 298 298 301 302 305 308 312 313 314 315 318 319 319 321 324 326 326 327 327 327
264 261 259 258 255 254 254 252 249 244 239 236 236 234 237 243 243 250 257 270 274 285 300 295 295 298 300 303 306 308 310 311 312 316 315 318 320 322 325 324 324 324 323
266 265 262 259 259 260 259 257 256 251 245 239 237 237 240 244 247 253 261 270 279 292 297 293 292 296 298 301 304 307 308 309 310 311 313 316 318 321 320 320 321 323 324
267 265 263 261 262 261 261 261 261 257 253 248 242 240 243 246 246 254 261 272 287 291 294 292 292 296 297 299 303 306 308 309 312 311 311 314 316 317 318 319 320 321 321
276 273 269 266 264 263 263 263 264 262 261 257 252 250 250 250 250 255 264 282 288 290 292 292 291 294 297 298 301 304 306 310 313 315 316 316 317 318 318 318 319 317 320
283 281 278 274 271 269 268 268 267 266 266 264 259 259 257 256 257 258 271 284 286 289 290 294 297 294 295 298 300 303 306 312 313 314 316 317 318 318 318 318 318 317 318
289 286 283 280 278 274 271 272 271 269 268 266 265 267 264 264 265 269 277 278 284 288 292 297 300 299 299 299 302 305 308 311 314 315 316 317 318 320 320 319 318 317 317
295 293 290 288 285 277 273 272 274 273 272 270 270 270 271 271 276 276 276 278 281 291 296 296 301 301 302 305 306 309 312 314 314 315 316 318 320 321 322 322 321 319 318
314 313 310 303 297 291 288 283 281 277 278 278 278 279 280 280 281 284 285 288 291 295 297 299 302 306 308 310 313 314 316 316 317 317 319 321 323 323 322 322 322 321 319
321 321 322 323 312 307 306 298 292 291 286 286 286 286 286 288 290 291 293 294 297 298 301 303 304 306 307 310 312 315 317 319 319 320 321 321 322 323 323 323 322 322 320
330 333 334 337 332 327 321 321 318 308 306 306 303 299 300 303 303 301 299 300 302 301 303 303 305 307 309 312 314 317 319 321 321 322 322 322 322 323 323 324 324 323 322
344 344 346 340 331 326 320 318 316 316 319 317 315 312 311 309 310 308 306 307 309 307 307 308 308 311 313 316 317 319 318 321 323 323 323 324 324 325 326 326 326 326 325
347 343 337 330 323 318 317 315 317 315 313 318 324 323 323 319 318 316 313 316 314 314 312 312 313 314 316 316 318 319 320 322 323 324 325 326 327 328 328 329 329 329 329
339 336 333 331 328 325 322 319 317 317 316 317 321 327 328 326 325 323 320 314 312 313 314 314 315 315 316 318 320 321 322 323 324 325 327 328 329 331 331 332 334 335 336
337 333 332 333 332 328 324 320 318 317 315 315 315 315 317 317 315 316 316 315 314 314 314 314 315 316 317 318 319 321 322 324 325 326 328 330 331 333 334 336 339 340 342
332 330 330 331 328 327 324 320 319 316 315 313 313 314 314 312 311 312 313 314 314 315 314 315 316 316 317 319 319 321 322 324 326 327 330 332 334 335 338 340 343 345 348
332 330 331 331 331 330 327 325 322 320 317 315 315 316 315 315 313 313 314 314 315 315 315 314 314 315 316 317 319 320 321 324 326 329 331 333 334 336 339 342 346 349 355
340 338 335 333 332 330 327 326 323 321 319 317 315 313 313 313 313 313 312 313 313 313 313 313 314 314 316 317 319 320 321 323 326 329 332 333 335 337 339 343 348 353 356
338 335 332 330 328 326 324 322 321 319 317 314 313 312 311 311 311 311 311 311 311 311 311 311 312 313 314 316 317 318 319 321 325 328 332 333 334 336 339 341 346 350 334
334 331 329 327 323 322 320 319 318 316 315 314 313 312 312 311 310 309 309 309 309 309 309 309 310 311 312 314 315 316 317 319 323 327 330 332 332 334 336 336 339 336 293
331 329 328 325 322 320 319 317 316 315 314 313 312 311 310 310 309 309 308 308 308 308 308 308 309 309 310 311 312 314 315 318 321 324 328 329 330 332 332 331 332 313 283